Weather History for Indianapolis, IN

Change the Weather History Date:

Wednesday, March 6, 2013

  Actual Average Record
Temperature  
Mean Temperature 30 °F 38 °F  
Max Temperature 32 °F 47 °F 75 °F (1973)
Min Temperature 27 °F 30 °F -6 °F (1960)
Degree Days  
Heating Degree Days 35 27  
Month to date heating degree days 208 165  
Since 1 July heating degree days 4219 4308  
Cooling Degree Days 0 0  
Month to date cooling degree days 0 0  
Year to date cooling degree days 0 0  
Moisture  
Dew Point 26 °F    
Average Humidity 89    
Maximum Humidity 92    
Minimum Humidity 85    
Precipitation  
Precipitation 0.07 in 0.11 in 1.21 in (1945)
Month to date precipitation 0.55 0.59  
Year to date precipitation 8.33 5.57  
Snow  
Snow 1.80 in 0.20 in 1.80 in (2003)
Month to date snowfall 4.6 0.8  
Since 1 July snowfall 24.6 23.9  
Snow Depth 4.00 in    
Sea Level Pressure  
Sea Level Pressure 30.09 in    
Wind  
Wind Speed 14 mph (NW)    
Max Wind Speed 28 mph    
Max Gust Speed 36 mph    
Visibility 7 miles    
Events Snow    
T = Trace of Precipitation, MM = Missing Value Source: NWS Daily Summary

Daily Weather History Graph

Daily Weather History Graph

Search for Another Location

Airport:

Trip Planner

Search our weather history database for the weather conditions in past years. The results will help you decide how hot, cold, wet, or windy it might be!

Date:

Astronomy

Mar. 06, 2013 Rise Set
Actual Time 7:10 AM EST 6:42 PM EST
Civil Twilight 6:43 AM EST 7:09 PM EST
Nautical Twilight 6:12 AM EST 7:41 PM EST
Astronomical Twilight 5:40 AM EST 8:12 PM EST
Moon 3:18 AM EST (3/6) 1:24 PM EST (3/6)
Length of Visible Light 12h 26m
Length of Day
11h 32m
Waning Crescent, 30% of the Moon is Illuminated
Mar 6
Waning Crescent
Mar 11
New
Mar 19
First Quarter
Mar 27
Full
Apr 3
Last Quarter

Hourly Weather History & Observations

Time (EST) Temp. Windchill Dew Point Humidity Pressure Visibility Wind Dir Wind Speed Gust Speed Precip Events Conditions
12:44 AM 28.4 °F 17.0 °F 26.6 °F 93% 29.77 in 0.8 mi NW 15.0 mph - 0.02 in Snow Light Snow
12:54 AM 28.0 °F 16.5 °F 26.1 °F 92% 29.80 in 0.8 mi NW 15.0 mph - 0.03 in Snow Light Snow
1:12 AM 28.4 °F 15.1 °F 26.6 °F 93% 29.78 in 1.2 mi NNW 20.7 mph 25.3 mph 0.00 in Snow Light Snow
1:54 AM 28.0 °F 15.7 °F 26.1 °F 92% 29.83 in 1.8 mi NW 17.3 mph 24.2 mph 0.01 in Snow Light Snow
2:14 AM 28.4 °F 15.8 °F 26.6 °F 93% 29.81 in 1.0 mi NNW 18.4 mph - 0.01 in Snow Light Snow
2:39 AM 28.4 °F 14.4 °F 26.6 °F 93% 29.82 in 0.8 mi NNW 23.0 mph 29.9 mph 0.02 in Snow Light Snow
2:54 AM 28.0 °F 15.3 °F 27.0 °F 96% 29.85 in 1.0 mi NNW 18.4 mph 25.3 mph 0.03 in Snow Light Snow
3:21 AM 28.4 °F 14.1 °F 26.6 °F 93% 29.84 in 2.0 mi NNW 24.2 mph 29.9 mph 0.00 in Snow Light Snow
3:31 AM 28.4 °F 15.4 °F 26.6 °F 93% 29.85 in 2.5 mi NNW 19.6 mph 28.8 mph 0.00 in Snow Light Snow
3:49 AM 28.4 °F 14.7 °F 24.8 °F 86% 29.86 in 4.0 mi NNW 21.9 mph 27.6 mph 0.00 in Snow Light Snow
3:54 AM 28.0 °F 14.9 °F 24.1 °F 85% 29.88 in 6.0 mi NNW 19.6 mph 28.8 mph 0.00 in Snow Light Snow
4:54 AM 28.0 °F 16.5 °F 25.0 °F 88% 29.92 in 8.0 mi NNW 15.0 mph 23.0 mph 0.00 in Snow Light Snow
5:54 AM 28.0 °F 15.3 °F 25.0 °F 88% 29.97 in 8.0 mi NNW 18.4 mph - 0.00 in Snow Light Snow
6:54 AM 27.0 °F 11.3 °F 24.1 °F 89% 30.02 in 8.0 mi North 27.6 mph 35.7 mph 0.00 in   Overcast
7:54 AM 27.0 °F 15.2 °F 24.1 °F 89% 30.08 in 10.0 mi North 15.0 mph - N/A   Overcast
8:54 AM 28.0 °F 14.6 °F 24.1 °F 85% 30.12 in 10.0 mi North 20.7 mph 25.3 mph N/A   Overcast
9:54 AM 28.9 °F 17.3 °F 25.0 °F 85% 30.14 in 10.0 mi NNW 16.1 mph - N/A   Overcast
10:54 AM 30.0 °F 19.5 °F 26.1 °F 85% 30.17 in 10.0 mi NNW 13.8 mph - N/A   Overcast
11:54 AM 30.9 °F 20.7 °F 27.0 °F 85% 30.18 in 10.0 mi NNW 13.8 mph - N/A   Overcast
12:54 PM 30.9 °F 20.7 °F 27.0 °F 85% 30.20 in 10.0 mi WNW 13.8 mph - N/A   Overcast
1:54 PM 30.9 °F 21.7 °F 27.0 °F 85% 30.20 in 10.0 mi NW 11.5 mph - N/A   Overcast
2:54 PM 30.9 °F 19.4 °F 27.0 °F 85% 30.21 in 10.0 mi WNW 17.3 mph - N/A   Overcast
3:54 PM 30.9 °F 22.8 °F 27.0 °F 85% 30.22 in 9.0 mi NW 9.2 mph - N/A   Overcast
4:54 PM 30.0 °F 19.5 °F 26.1 °F 85% 30.24 in 6.0 mi WNW 13.8 mph - N/A   Overcast
5:23 PM 30.2 °F 20.2 °F 26.6 °F 86% 30.22 in 7.0 mi WNW 12.7 mph - N/A   Overcast
5:54 PM 30.0 °F 20.0 °F 26.1 °F 85% 30.26 in 8.0 mi WNW 12.7 mph - N/A   Overcast
6:54 PM 30.0 °F 21.1 °F 27.0 °F 88% 30.27 in 7.0 mi WNW 10.4 mph - 0.00 in Snow Light Snow
7:54 PM 28.9 °F 20.4 °F 26.1 °F 89% 30.28 in 9.0 mi WNW 9.2 mph - 0.00 in Snow Light Snow
8:54 PM 28.9 °F 19.2 °F 26.1 °F 89% 30.29 in 9.0 mi WNW 11.5 mph - 0.00 in Snow Light Snow
9:23 PM 28.4 °F 19.1 °F 26.6 °F 93% 30.26 in 9.0 mi WNW 10.4 mph - 0.00 in Snow Light Snow
9:33 PM 28.4 °F 20.4 °F 26.6 °F 93% 30.26 in 9.0 mi WNW 8.1 mph - 0.00 in Snow Light Snow
9:42 PM 28.4 °F 20.4 °F 26.6 °F 93% 30.26 in 8.0 mi WNW 8.1 mph - 0.00 in Snow Light Snow
9:54 PM 28.9 °F 20.4 °F 26.1 °F 89% 30.29 in 8.0 mi WNW 9.2 mph - 0.00 in Snow Light Snow
10:54 PM 28.9 °F 20.4 °F 25.0 °F 85% 30.29 in 8.0 mi WNW 9.2 mph - 0.00 in Snow Light Snow
11:22 PM 28.4 °F 21.2 °F 24.8 °F 86% 30.26 in 7.0 mi WNW 6.9 mph - 0.00 in Snow Light Snow
11:54 PM 28.0 °F 20.8 °F 25.0 °F 88% 30.29 in 8.0 mi WNW 6.9 mph - 0.00 in Snow Light Snow